Regional Weather Roundup
Issued by NWS

Home | Current Version | Previous Version | Text Only | Print | Product List | Glossary Off
Versions: 1 2 3 4 5 6 7 8 9 10 11 12 13 14 15 16 17 18 19 20 21 22 23 24 25 26 27 28 29 30 31 32 33 34 35 36 37 38 39 40 41 42 43 44 45 46 47 48 49 50

000
ASUS43 KDMX 230306
RWRIA

WEATHER ROUNDUP FOR IOWA
NATIONAL WEATHER SERVICE DES MOINES IA
900 PM CST MON JAN 22 2018

NOTE: "FAIR" INDICATES FEW OR NO CLOUDS BELOW 12,000 FEET WITH NO
SIGNIFICANT WEATHER AND/OR OBSTRUCTIONS TO VISIBILITY.

* - THESE STATIONS ARE NOT NWS STATIONS...THUS NOT UNDER NWS
QUALITY CONTROL.  THEY ALSO DO NOT REPORT WEATHER SUCH
AS PRECIPITATION OR FOG.

IAZ001>003-012>014-020>022-031>034-043>046-230400-
   NORTHWEST IOWA

CITY           SKY/WX    TMP DP  RH WIND       PRES   REMARKS
CARROLL *      HVY RAIN  28  28 100 N32       29.70R WCI  12
CHEROKEE *     CLOUDY    28  27  93 N24G36    29.79R FOG     WCI  14
DENISON *      CLOUDY    30  27  86 N28G39    29.75R WCI  16
LE MARS *      CLOUDY    28  27  93 N21G29    29.84R WCI  15
ORANGE CITY *  CLOUDY    28  27  93 N16G28    29.82R WCI  17
SHELDON *      MIX PCPN  27  27 100 N28G36    29.80R WCI  11
SIOUX CITY     LGT SNOW  28  26  92 N24G37    29.84R FOG     WCI  14
SPENCER        CLOUDY    29  26  89 N28G36    29.76R FOG     WCI  14
STORM LAKE *   LGT SNOW  28  27  93 N35G44    29.73R WCI  12
$$

IAZ055>058-069>071-079>083-090>094-230400-
   SOUTHWEST IOWA

CITY           SKY/WX    TMP DP  RH WIND       PRES   REMARKS
ATLANTIC *     LGT RAIN  30  28  93 N28G35    29.71R WCI  16
AUDUBON *      LGT SNOW  28  27  93 N24G32    29.71R WCI  14
CLARINDA *     LGT RAIN  32  30  93 N23G32      N/A  WCI  19
COUNCIL BLFS * MIX PCPN  28  30 100 NW26G35   29.76R WCI  13
CRESTON *      LGT SNOW  30  28  93 N26G39    29.63R WCI  16
HARLAN  *      LGT SNOW  30  30 100 N24G36    29.77R WCI  16
LAMONI         CLOUDY    33  29  85 NW21G35   29.58R WCI  21
RED OAK *      LGT SNOW  30  28  93 N23G32    29.74R WCI  17
SHENANDOAH *   LGT SNOW  32  28  86 NW18G29   29.77R WCI  20
$$

IAZ047>049-059>061-072>074-084-230400-
   CENTRAL IOWA

CITY           SKY/WX    TMP DP  RH WIND       PRES   REMARKS
AMES           LGT SNOW  32  32 100 N23G35    29.59R FOG     WCI  19
ANKENY *       LGT RAIN  32  32 100 NW23G31   29.59R WCI  19
BOONE *        RAIN      30  30 100 N25G36    29.59R WCI  16
CHARITON *     MIX PCPN  36  34  93 NW20G26   29.54R WCI  25
DES MOINES     FLURRIES  33  31  92 N17G32    29.58R WCI  22
GRINNELL*      DRIZZLE   36  34  94 NW8       29.53R WCI  29
KNOXVILLE *    MIX PCPN  36  36 100 NW15      29.53R WCI  26
MARSHALLTOWN   MIX PCPN  34  33  96 N20       29.53R FOG     WCI  23
NEWTON *       CLOUDY    34  34 100 N13       29.54R FOG     WCI  25
PELLA *        LGT RAIN  36  34  94 NW6       29.54R WCI  31
PERRY *        LGT SNOW  31  30  96 NW28G35   29.65R WCI  16
$$

IAZ004>006-015-016-023>025-035-036-230400-
   NORTH CENTRAL IOWA

CITY           SKY/WX    TMP DP  RH WIND       PRES   REMARKS
ALGONA *       LGT SNOW  28 N/A N/A N24G38    29.70R VSB 3/4 WCI  14
CLARION *      FOG       28  28 100 N22G35    29.64R VSB 3/4 WCI  15
ESTHERVILLE    FOG       27  27 100 N30G38    29.74R VSB 1   WCI  11
FORT DODGE *   FLURRIES  28  26  92 N17G26    29.67R WCI  16
MASON CITY     LGT SNOW  28  26  92 N23       29.64R VSB 3/4 WCI  14
FOREST CITY *  LGT SNOW  30  28  93 N26G35    29.66R WCI  16
WEBSTER CITY * HVY RAIN  30  28  93 N28G35    29.61R VSB 1   WCI  16
IOWA FALLS *   FLURRIES  32  32  97 N20G31    29.59R WCI  21
$$

IAZ007>011-017>019-026>030-037>042-050>054-066-230400-
   NORTHEAST IOWA

CITY           SKY/WX    TMP DP  RH WIND       PRES   REMARKS
CEDAR RAPIDS   CLOUDY    36  33  89 CALM      29.50R
CHARLES CITY * RAIN      32  32 100 N18G24    29.58R WCI  20
CLINTON *      CLOUDY    36  32  85 W6        29.51S WCI  31
DECORAH *      MIX PCPN  32  32 100 N10G17    29.53S WCI  24
DUBUQUE        CLOUDY    35  35 100 N7        29.49S FOG     WCI  29
MONTICELLO *   FOG       36  36 100 CALM      29.50S VSB<1/4
OELWEIN *      CLOUDY    34  34 100 NE15      29.53R FOG     WCI  24
WATERLOO       CLOUDY    33  32  96 N14       29.53R WCI  23
$$

IAZ064-065-067-068-078-230400-
   EAST CENTRAL IOWA

CITY           SKY/WX    TMP DP  RH WIND       PRES   REMARKS
DAVENPORT        N/A     34  29  82 SW6       29.52F WCI  29
IOWA CITY      MOCLDY    34  30  85 W5        29.53R WCI  30
MT. PLEASANT * CLOUDY    34  34 100 CALM      29.52R
MUSCATINE *    CLOUDY    36  32  87 CALM      29.52S
QUAD CITIES      N/A     31  28  89 SE3       29.51S
$$

IAZ062-063-075>077-085>089-095>099-230400-
   SOUTHEAST IOWA

CITY           SKY/WX    TMP DP  RH WIND       PRES   REMARKS
BURLINGTON     CLOUDY    36  34  92 S3        29.51S
FAIRFIELD *    CLOUDY    34  34 100 CALM      29.51R
FORT MADISON * CLOUDY    36  36 100 S5        29.52S WCI  32
KEOKUK *       MIX PCPN  36  34  93 SW9G15    29.50S WCI  29
OSKALOOSA *    CLOUDY    34  33  97 NW7       29.53R WCI  27
OTTUMWA        CLOUDY    35  33  92 W5        29.52R WCI  31
WASHINGTON *   CLOUDY    34  34 100 SW3       29.52S
$$

ABBREVIATIONS USED IN REMARKS
   TC - TEMPERATURES IN CELSIUS
  WCI - WIND CHILL INDEX
   HX - HEAT INDEX
  VSB - VISIBILITY
$$





USA.gov is the U.S. government's official web portal to all federal, state and local government web resources and services.